Weather History for CXVN - October, 2012

Change the Weather History Date:

Wednesday, October 17, 2012

  Actual Average Record
Temperature  
Mean Temperature 54 °F -  
Max Temperature 68 °F - - ()
Min Temperature 40 °F - - ()
Degree Days  
Heating Degree Days 11    
Growing Degree Days 4 (Base 50)    
Moisture  
Dew Point 45 °F    
Average Humidity 64    
Maximum Humidity 90    
Minimum Humidity 41    
Precipitation  
Precipitation 0.03 in - - ()
Sea Level Pressure  
Sea Level Pressure 29.77 in    
Wind  
Wind Speed 5 mph ()    
Max Wind Speed 12 mph    
Max Gust Speed -    
T = Trace of Precipitation, MM = Missing Value Source: Averaged Metar Reports

Daily Weather History Graph

Daily Weather History Graph

Search for Another Location

Airport or City:

Trip Planner

Search our weather history database for the weather conditions in past years. The results will help you decide how hot, cold, wet, or windy it might be!

Date:

Astronomy

Oct. 17, 2012 Rise Set
Actual Time 7:34 AM EDT 6:30 PM EDT
Civil Twilight 7:05 AM EDT 6:59 PM EDT
Nautical Twilight 6:32 AM EDT 7:32 PM EDT
Astronomical Twilight 5:59 AM EDT 8:05 PM EDT
Moon 10:11 AM EDT (10/17) 7:59 PM EDT (10/17)
Length of Visible Light 11h 53m
Length of Day
10h 56m
Waxing Crescent, 7% of the Moon is Illuminated
Oct 17
Waxing Crescent
Oct 21
First Quarter
Oct 29
Full
Nov 6
Last Quarter
Nov 13
New

Hourly Weather History & Observations

Time (EDT) Temp. Windchill Dew Point Humidity Pressure Visibility Wind Dir Wind Speed Gust Speed Precip Events Conditions
2:00 AM 42 °F - 38 °F 80% 29.86 in - South 3.5 mph - -  
5:00 AM 43.7 °F 42.1 °F 41.0 °F 90% 29.83 in - South 3.5 mph - N/A   Unknown
6:00 AM 47.5 °F - 43.0 °F 84% 29.83 in - South 4.6 mph - N/A   Unknown
7:00 AM 49.3 °F - 43.9 °F 82% 29.83 in - South 4.6 mph - N/A   Unknown
8:00 AM 51 °F - 44 °F 71% 29.82 in - South 6.9 mph - -  
8:00 AM 50.9 °F - 44.4 °F 78% 29.82 in - South 6.9 mph - N/A   Unknown
9:00 AM 52.5 °F - 45.1 °F 76% 29.84 in - South 4.6 mph - N/A   Unknown
10:00 AM 52.5 °F - 47.3 °F 82% 29.83 in - South 6.9 mph - 0.03 in   Unknown
11:00 AM 56.5 °F - 47.5 °F 72% 29.82 in - South 4.6 mph - N/A   Unknown
12:00 PM 59.9 °F - 45.5 °F 59% 29.78 in - SSW 9.2 mph - N/A   Unknown
1:00 PM 61.5 °F - 45.1 °F 55% 29.77 in - SSW 8.1 mph - N/A   Unknown
2:00 PM 63 °F - 45 °F 41% 29.76 in - SW 10.4 mph - -  
2:00 PM 63.0 °F - 45.3 °F 53% 29.76 in - SW 10.4 mph - N/A   Unknown
3:00 PM 66.0 °F - 45.1 °F 47% 29.74 in - SSW 6.9 mph - N/A   Unknown
4:00 PM 68.5 °F - 43.9 °F 41% 29.73 in - SW 11.5 mph - N/A   Unknown
5:00 PM 66.2 °F - 43.3 °F 44% 29.73 in - SSW 8.1 mph - N/A   Unknown
6:00 PM 65.5 °F - 43.7 °F 45% 29.72 in - South 2.3 mph - N/A   Unknown
7:00 PM 62.4 °F - 45.7 °F 54% 29.73 in - SE 2.3 mph - N/A   Unknown
8:00 PM 60 °F - 46 °F 50% 29.73 in - SSE 1.2 mph - -  
8:00 PM 59.7 °F - 46.4 °F 61% 29.73 in - SSE 1.2 mph - N/A   Unknown
9:00 PM 59.5 °F - 45.1 °F 59% 29.71 in - South 3.5 mph - N/A   Unknown
10:00 PM 56.7 °F - 45.5 °F 66% 29.71 in - SSE 2.3 mph - N/A   Unknown
11:00 PM 55.4 °F - 46.2 °F 71% 29.71 in - South 2.3 mph - N/A   Unknown